Flag for Finland Weather past 2 weeks in Mariehamn, Finland

41 °F

Light rain. Low clouds.

Feels Like: 34 °F
Forecast: 38 / 47 °F
Wind: 13 mph from Southwest

Location: Mariehamn / Aland Island

Current Time: Nov 26, 2015 at 6:11:26 AM

Latest Report: Nov 26, 2015 at 5:20 AM

Visibility: N/A

Pressure: 29.59 "Hg

Humidity: 93%

Dew point: 39 °F

Location of MariehamnLocation

Historic Weather in Mariehamn — Graph


Mariehamn temperature yesterday

Maximum temperature yesterday: 43 °F (at 12:20 AM)
Minimum temperature yesterday: 41 °F (at 4:50 AM)
Average temperature yesterday: 43 °F

Past Weeks' High & Low Weather Summary

High50 °F (Nov 13, 4:50 PM)100% (Nov 11, 7:20 PM)29.98 "Hg (Nov 11, 7:20 PM)
Low18 °F (Nov 23, 9:20 AM)65% (Nov 21, 5:20 PM)29.21 "Hg (Nov 19, 2:20 PM)
Average39 °F89%29.52 "Hg
* Reported Nov 11 4:20 AM — Nov 26 4:20 AM, Mariehamn, Weather by CustomWeather, © 2015

Note: Actual official high and low records may vary slightly from our data, if they occured in-between our weather recording intervals... More about our weather records


Mariehamn weather history for previous 24 hours

Time TempWeatherWind HumidityBarometerVisibility
4:20 AM
Thu, Nov 26
41 °FRain. Overcast.14 mph93%29.59 "HgN/A
3:50 AM41 °FLight rain. Overcast.15 mph93%29.59 "HgN/A
3:20 AM41 °FLight rain. Overcast.16 mph87%29.59 "HgN/A
2:20 AM41 °FLight rain. Overcast.17 mph87%29.59 "HgN/A
1:50 AM41 °FLight rain. Overcast.18 mph87%29.56 "HgN/A
12:20 AM43 °FLight rain. Overcast.20 mph81%29.56 "HgN/A
11:50 PM
Wed, Nov 25
43 °FLight rain. Mostly cloudy.17 mph81%29.56 "HgN/A
11:20 PM43 °FLight rain. Overcast.18 mph81%29.56 "HgN/A
10:50 PM41 °FLight rain. Mostly cloudy.20 mph87%29.56 "HgN/A
10:20 PM43 °FLight rain. Overcast.21 mph81%29.56 "HgN/A
9:50 PM43 °FLight rain. Overcast.21 mph81%29.56 "HgN/A
9:20 PM43 °FLight rain. Overcast.21 mph81%29.56 "HgN/A
8:50 PM43 °FLight rain. Overcast.18 mph81%29.56 "Hg6 mi
8:20 PM43 °FLight rain. Overcast.20 mph81%29.56 "HgN/A
7:50 PM43 °FLight rain. Overcast.18 mph87%29.56 "Hg5 mi
7:20 PM43 °FLight rain. Overcast.18 mph87%29.56 "HgN/A
6:50 PM43 °FSprinkles. Low clouds.21 mph87%29.53 "Hg4 mi
6:20 PM43 °FSprinkles. Overcast.17 mph87%29.53 "Hg3 mi
5:50 PM43 °FLight rain. Overcast.20 mph87%29.53 "HgN/A
5:20 PM43 °FLight rain. Overcast.15 mph87%29.53 "HgN/A
4:50 PM43 °FLight rain. Overcast.15 mph87%29.53 "HgN/A
4:20 PM43 °FLight rain. Overcast.17 mph81%29.53 "HgN/A
3:50 PM43 °FPartly sunny.18 mph81%29.53 "HgN/A
3:20 PM43 °FMostly cloudy.17 mph81%29.53 "HgN/A
2:50 PM43 °FOvercast.18 mph81%29.53 "HgN/A
2:20 PM43 °FOvercast.20 mph81%29.53 "HgN/A
1:50 PM43 °FOvercast.18 mph81%29.53 "HgN/A
1:20 PM43 °FOvercast.18 mph81%29.53 "HgN/A
12:50 PM43 °FMostly cloudy.17 mph81%29.53 "HgN/A
12:20 PM43 °FOvercast.17 mph81%29.53 "HgN/A
11:50 AM43 °FOvercast.15 mph81%29.53 "HgN/A
11:20 AM43 °FMostly cloudy.16 mph81%29.53 "HgN/A
10:50 AM43 °FMostly cloudy.18 mph81%29.53 "HgN/A
10:20 AM43 °FLight rain. Mostly cloudy.20 mph81%29.53 "HgN/A
9:50 AM41 °FLight rain. Overcast.18 mph93%29.53 "HgN/A
9:20 AM41 °FLight rain. Overcast.18 mph93%29.53 "HgN/A
8:50 AM41 °FLight rain. Overcast.18 mph87%29.53 "HgN/A
8:20 AM41 °FLight rain. Overcast.18 mph87%29.53 "HgN/A
7:50 AM41 °FLight rain. Overcast.17 mph87%29.53 "HgN/A
7:20 AM43 °FLight rain. Overcast.21 mph81%29.53 "HgN/A
6:50 AM43 °FSprinkles. Overcast.20 mph81%29.53 "HgN/A
6:20 AM43 °FSprinkles. Overcast.20 mph81%29.53 "HgN/A
Weather by CustomWeather, © 2015

See weather overviewHow to use our weather pages